Precipitable_Water
1.01 0.97 0.92 0.91 0.81 0.83 0.86 0.80 0.72 0.65 0.60 0.60 0.62 0.65 0.62 0.58 0.56 0.54 0.50 0.46 0.43 0.40 0.37 0.35 0.34 0.33 0.33 0.33 0.35 0.35 0.36 0.36 0.37 0.38 0.40 0.42 0.44 0.46
0.99 0.92 0.89 0.87 0.90 0.91 0.86 0.77 0.75 0.67 0.62 0.68 0.66 0.65 0.63 0.58 0.57 0.54 0.48 0.43 0.40 0.37 0.35 0.34 0.33 0.33 0.34 0.35 0.36 0.36 0.36 0.37 0.38 0.39 0.40 0.40 0.42 0.42
0.93 0.88 0.89 0.89 0.86 0.85 0.80 0.84 0.79 0.71 0.64 0.65 0.65 0.63 0.59 0.56 0.53 0.48 0.43 0.39 0.37 0.34 0.32 0.31 0.33 0.34 0.35 0.35 0.35 0.35 0.36 0.36 0.36 0.36 0.36 0.37 0.37 0.38
0.87 0.87 0.88 0.89 0.88 0.87 0.79 0.78 0.75 0.70 0.67 0.65 0.65 0.60 0.55 0.50 0.46 0.41 0.39 0.37 0.34 0.30 0.29 0.31 0.32 0.32 0.33 0.33 0.34 0.35 0.35 0.34 0.33 0.32 0.32 0.33 0.34 0.35
0.87 0.87 0.91 0.84 0.81 0.77 0.74 0.67 0.75 0.75 0.70 0.63 0.57 0.52 0.49 0.44 0.39 0.39 0.36 0.34 0.31 0.29 0.27 0.28 0.29 0.30 0.31 0.32 0.33 0.33 0.32 0.31 0.32 0.32 0.33 0.33 0.34 0.34
0.84 0.82 0.78 0.78 0.77 0.81 0.78 0.77 0.75 0.69 0.62 0.57 0.53 0.48 0.41 0.38 0.37 0.31 0.29 0.30 0.27 0.25 0.26 0.28 0.29 0.29 0.29 0.29 0.30 0.29 0.29 0.29 0.30 0.31 0.32 0.33 0.33 0.34
0.85 0.83 0.83 0.85 0.81 0.81 0.75 0.68 0.66 0.61 0.56 0.51 0.43 0.37 0.33 0.31 0.29 0.30 0.27 0.25 0.25 0.25 0.25 0.26 0.27 0.27 0.27 0.27 0.27 0.27 0.27 0.28 0.30 0.32 0.33 0.34 0.34 0.35
0.83 0.81 0.80 0.77 0.75 0.71 0.70 0.68 0.63 0.52 0.40 0.35 0.33 0.28 0.28 0.28 0.27 0.26 0.23 0.22 0.19 0.26 0.24 0.24 0.27 0.24 0.25 0.26 0.27 0.28 0.29 0.30 0.31 0.32 0.32 0.33 0.34 0.34
0.79 0.75 0.70 0.70 0.66 0.60 0.55 0.44 0.38 0.35 0.34 0.32 0.27 0.26 0.25 0.26 0.26 0.23 0.23 0.22 0.20 0.23 0.23 0.20 0.24 0.23 0.26 0.27 0.29 0.29 0.29 0.30 0.30 0.31 0.32 0.34 0.34 0.34
0.71 0.68 0.64 0.58 0.49 0.40 0.36 0.31 0.29 0.28 0.27 0.28 0.27 0.26 0.25 0.25 0.24 0.24 0.22 0.21 0.21 0.23 0.25 0.19 0.24 0.24 0.27 0.27 0.28 0.28 0.29 0.29 0.31 0.32 0.33 0.34 0.35 0.35
0.60 0.47 0.37 0.31 0.28 0.27 0.25 0.23 0.24 0.25 0.26 0.24 0.23 0.23 0.23 0.22 0.21 0.19 0.19 0.20 0.19 0.21 0.26 0.24 0.25 0.24 0.25 0.26 0.27 0.28 0.29 0.31 0.31 0.32 0.33 0.34 0.36 0.37
0.31 0.28 0.25 0.23 0.23 0.23 0.24 0.23 0.19 0.18 0.17 0.18 0.18 0.17 0.17 0.17 0.21 0.23 0.23 0.21 0.22 0.22 0.27 0.25 0.24 0.25 0.22 0.27 0.29 0.30 0.31 0.31 0.32 0.33 0.34 0.35 0.36 0.36
0.20 0.19 0.20 0.22 0.22 0.22 0.22 0.19 0.16 0.18 0.17 0.15 0.14 0.14 0.18 0.21 0.24 0.26 0.28 0.28 0.26 0.25 0.29 0.28 0.26 0.26 0.26 0.25 0.27 0.29 0.30 0.31 0.32 0.33 0.34 0.34 0.36 0.36
0.17 0.18 0.19 0.20 0.20 0.19 0.17 0.15 0.16 0.16 0.13 0.13 0.17 0.20 0.22 0.24 0.27 0.29 0.30 0.31 0.32 0.30 0.31 0.31 0.28 0.28 0.27 0.25 0.25 0.29 0.31 0.32 0.34 0.33 0.34 0.35 0.36 0.36
0.18 0.19 0.18 0.17 0.15 0.13 0.14 0.15 0.15 0.14 0.17 0.20 0.21 0.23 0.26 0.28 0.29 0.30 0.31 0.32 0.32 0.32 0.32 0.33 0.31 0.31 0.29 0.26 0.26 0.27 0.28 0.31 0.34 0.34 0.34 0.34 0.33 0.34
0.18 0.16 0.15 0.13 0.13 0.13 0.13 0.15 0.17 0.21 0.23 0.24 0.25 0.26 0.28 0.28 0.28 0.30 0.29 0.29 0.28 0.28 0.33 0.34 0.33 0.31 0.28 0.29 0.28 0.27 0.31 0.30 0.34 0.34 0.34 0.34 0.36 0.37
0.16 0.13 0.11 0.11 0.12 0.13 0.16 0.20 0.23 0.25 0.25 0.26 0.26 0.27 0.27 0.28 0.28 0.30 0.29 0.29 0.27 0.26 0.27 0.30 0.32 0.31 0.30 0.29 0.27 0.30 0.31 0.32 0.33 0.33 0.34 0.33 0.34 0.36
0.11 0.10 0.11 0.12 0.14 0.18 0.21 0.23 0.25 0.26 0.27 0.28 0.28 0.27 0.27 0.27 0.27 0.29 0.29 0.28 0.26 0.27 0.26 0.28 0.28 0.27 0.26 0.27 0.32 0.31 0.33 0.33 0.35 0.36 0.36 0.33 0.33 0.37
0.11 0.11 0.13 0.16 0.20 0.22 0.24 0.25 0.26 0.28 0.29 0.29 0.28 0.28 0.27 0.27 0.27 0.27 0.28 0.27 0.26 0.26 0.27 0.30 0.29 0.26 0.22 0.21 0.29 0.36 0.33 0.35 0.36 0.35 0.36 0.36 0.34 0.36
0.13 0.14 0.17 0.20 0.22 0.24 0.26 0.27 0.29 0.30 0.30 0.30 0.29 0.29 0.28 0.27 0.27 0.27 0.27 0.26 0.26 0.27 0.28 0.31 0.29 0.27 0.24 0.24 0.28 0.34 0.39 0.37 0.36 0.35 0.35 0.37 0.39 0.40
0.15 0.17 0.20 0.22 0.24 0.26 0.28 0.29 0.30 0.30 0.30 0.30 0.30 0.29 0.29 0.28 0.28 0.28 0.27 0.28 0.28 0.29 0.28 0.28 0.27 0.31 0.31 0.33 0.31 0.33 0.37 0.41 0.41 0.38 0.38 0.35 0.34 0.35
0.16 0.18 0.21 0.24 0.26 0.27 0.28 0.30 0.31 0.31 0.31 0.30 0.30 0.30 0.30 0.30 0.29 0.28 0.28 0.27 0.28 0.29 0.29 0.27 0.28 0.29 0.29 0.30 0.32 0.34 0.36 0.38 0.42 0.44 0.44 0.42 0.37 0.31
0.17 0.19 0.22 0.25 0.27 0.28 0.29 0.30 0.31 0.32 0.32 0.31 0.31 0.30 0.30 0.30 0.30 0.29 0.29 0.29 0.30 0.29 0.26 0.25 0.28 0.29 0.29 0.33 0.35 0.35 0.36 0.36 0.38 0.37 0.38 0.43 0.43 0.44
Wind_Speed
36 35 34 33 33 33 34 33 32 32 32 33 33 33 35 37 39 41 41 42 43 44 44 45 46 46 46 46 46 47 47 48 48 49 49 50 50 51
37 36 35 34 34 34 33 34 35 35 35 34 34 36 38 40 42 42 44 45 45 46 47 47 48 47 47 48 48 48 48 49 49 50 51 52 52 52
36 36 35 36 34 34 34 36 36 37 38 35 37 38 39 41 42 44 45 46 47 48 49 49 49 49 49 49 49 49 49 50 51 51 52 52 53 54
35 35 36 35 35 35 36 36 38 38 38 39 38 38 40 42 44 46 47 47 49 49 50 50 49 49 49 49 49 49 50 51 52 52 53 54 55 55
34 35 32 34 36 35 36 37 39 40 41 40 40 41 42 43 45 47 48 49 49 50 50 49 49 48 49 50 50 51 52 53 54 54 55 55 55 55
34 34 35 35 34 35 37 38 39 40 39 40 42 42 44 45 46 48 48 48 49 48 49 48 48 49 51 51 52 52 52 52 53 53 52 52 51 51
32 33 35 33 33 34 36 37 38 39 39 41 42 44 45 46 48 49 50 51 50 49 47 48 49 49 50 50 50 50 49 49 48 48 48 48 47 47
28 28 30 33 35 35 36 36 37 39 40 42 44 45 47 48 49 50 51 51 50 47 48 50 49 48 48 47 46 46 45 46 46 45 43 41 41 42
25 28 29 30 32 33 35 37 39 41 42 43 45 47 49 50 52 52 52 51 51 51 52 50 47 45 43 42 42 42 42 42 40 38 37 38 39 40
24 24 25 28 31 33 35 36 38 40 42 45 48 50 51 51 51 51 51 51 50 47 45 43 40 39 38 38 39 39 38 36 35 36 36 36 37 37
20 24 25 28 30 32 35 38 40 42 45 48 49 49 49 50 50 48 45 43 41 37 35 34 32 33 34 34 33 31 31 33 33 34 35 35 36 36
19 22 25 28 31 34 37 39 41 43 44 44 44 44 43 41 39 36 33 30 28 27 26 27 31 32 29 27 28 30 31 31 31 32 33 34 34 33
21 25 28 31 34 35 37 37 38 38 37 36 35 33 31 28 26 25 24 23 24 25 29 30 29 28 27 28 27 28 29 30 31 32 33 32 32 31
24 27 30 31 31 32 32 32 31 29 28 26 24 22 22 21 21 21 22 22 25 28 29 28 27 27 28 29 29 29 30 31 32 31 30 30 31 30
25 27 27 27 27 27 27 26 25 23 22 21 21 21 21 21 22 22 22 24 26 27 27 27 28 29 28 29 31 32 33 31 32 31 30 30 30 29
24 24 25 25 25 24 23 22 21 21 21 22 22 22 22 22 22 21 23 24 26 26 26 27 28 28 29 30 32 34 33 31 32 31 30 30 29 29
22 23 24 23 22 22 20 20 21 21 22 22 22 23 23 22 22 22 23 24 25 26 27 29 29 29 31 32 33 32 30 30 29 28 28 28 27 27
22 22 21 21 21 20 19 21 21 22 22 23 23 23 22 22 22 22 23 25 26 27 29 30 30 30 30 30 28 29 28 27 28 28 27 26 26 24
21 21 21 20 19 19 20 21 22 23 23 23 23 23 22 21 22 23 24 26 27 28 29 30 30 30 30 27 28 28 28 29 30 29 28 27 26 26
21 20 20 19 19 20 21 22 23 24 24 24 24 23 22 22 23 23 25 27 28 28 29 30 31 30 28 27 28 29 29 30 27 26 26 26 26 27
20 20 19 18 19 20 22 23 24 24 24 25 25 24 23 23 23 25 26 28 29 29 29 30 31 32 29 29 28 28 30 29 26 26 25 23 23 22
20 20 19 18 19 21 23 24 25 25 25 25 25 24 23 24 24 26 27 28 29 29 30 32 32 30 28 28 29 30 29 28 26 25 24 23 22 19
21 20 19 19 21 22 23 25 26 27 27 26 25 25 24 24 25 27 28 29 30 30 31 31 31 30 29 29 30 30 30 28 26 25 24 23 23 22
Wind_Direction
255 258 260 261 265 267 274 272 270 278 279 280 278 277 280 284 288 292 293 294 295 296 295 294 293 292 290 289 288 287 286 285 284 283 282 281 279 278
255 257 260 261 266 268 271 273 274 276 277 280 277 279 282 285 289 291 292 293 294 295 294 293 292 291 289 288 288 287 286 285 284 283 282 280 279 278
255 258 259 262 266 268 273 274 274 275 278 278 280 282 283 286 288 291 292 293 294 294 294 293 292 290 289 288 287 286 285 285 284 283 282 280 279 278
256 259 260 260 268 268 274 276 278 275 276 279 283 282 284 288 289 291 292 293 294 294 294 293 292 291 289 289 288 287 286 285 284 283 282 281 279 278
256 260 256 265 266 272 275 279 277 279 276 279 283 285 287 289 290 292 292 293 294 294 294 292 292 291 290 289 288 288 287 285 284 283 282 281 280 279
259 259 263 267 268 271 277 279 280 280 278 280 285 286 289 290 291 292 293 294 295 295 293 292 292 291 290 290 289 288 287 286 285 284 283 282 281 280
258 261 264 268 274 277 279 281 282 281 282 284 286 288 290 291 292 294 294 295 295 295 293 293 292 292 291 291 290 289 288 287 286 286 285 284 283 281
258 263 268 273 277 280 282 282 282 283 285 287 288 290 291 292 293 294 295 295 295 295 294 294 293 292 291 291 291 290 289 288 288 288 286 285 284 284
263 271 274 276 279 282 282 284 286 286 288 289 290 291 292 293 293 294 294 294 294 294 294 293 293 292 292 292 291 291 290 290 289 288 287 287 287 286
270 274 277 282 284 286 288 289 290 291 292 292 292 293 293 293 294 294 294 294 295 295 295 293 295 294 295 295 294 293 291 290 290 290 290 289 289 288
275 282 285 290 292 292 293 294 294 294 295 295 294 294 294 294 295 295 295 296 297 297 298 296 300 300 300 299 297 296 294 294 293 291 292 292 292 291
286 290 293 296 297 298 298 298 299 299 299 298 297 297 297 297 297 298 298 299 301 303 305 303 305 306 304 302 301 300 299 297 296 295 294 293 292 292
297 300 301 302 302 303 303 304 304 304 303 303 303 304 304 304 304 303 302 302 303 304 306 306 307 307 303 305 306 304 302 301 299 298 297 294 292 291
305 306 307 307 308 309 310 310 310 311 312 313 314 314 314 313 312 310 308 307 307 307 310 308 308 308 306 305 305 308 306 303 301 299 297 295 294 292
310 311 313 314 315 316 316 316 317 318 318 318 318 317 316 315 314 312 311 311 312 312 311 310 309 309 306 306 307 309 308 308 304 300 298 295 293 292
316 317 318 319 319 320 320 321 321 322 321 319 317 316 316 314 313 312 313 315 317 317 316 314 313 312 309 308 308 309 309 308 307 303 300 297 294 290
320 321 322 322 324 324 324 324 324 324 322 321 319 317 316 315 313 314 314 316 317 318 318 319 317 313 311 309 309 310 311 311 310 309 307 302 298 294
324 325 325 325 324 323 323 324 324 324 323 322 320 319 316 315 314 315 316 317 318 319 319 320 320 319 318 316 308 313 315 314 314 312 310 306 303 300
324 325 324 324 322 322 323 324 323 323 322 322 321 319 317 315 315 315 317 319 319 319 320 321 321 321 320 318 317 315 313 315 315 312 310 306 302 299
323 323 322 322 321 322 324 324 323 323 322 322 321 319 316 315 316 316 318 319 320 320 321 322 321 321 319 316 317 317 316 316 315 315 315 313 309 301
321 320 318 318 321 323 325 325 324 323 322 321 320 317 315 315 315 316 318 319 320 321 321 322 322 321 317 316 316 317 320 318 314 314 316 317 319 320
318 317 315 316 319 323 326 327 326 324 323 321 320 317 315 314 314 317 318 319 321 320 320 321 322 321 318 318 317 317 321 320 316 314 312 309 312 315
316 313 311 311 315 319 323 325 326 325 324 321 319 318 316 314 315 317 318 319 320 321 322 322 323 322 318 318 317 317 319 320 318 314 312 311 310 307